Погода в Советском

Россия / Сахалинская область     47°29′38″N   142°39′42″E
В апреле 2022 года жителям России запретили посещать сайт meteo.paraplan.net по решению Генеральной прокуратуры. Аудитория сайта уменьшилась в 10 раз. Владельцы сайта не видят смысла в поддержке погодного сервера в таких условиях. Сайт будет закрыт в октябре.
темп.,
°C
ветер,
м/с
пор.,
м/с
влажн.,
%
обл.,
%
осадки,
мм/ч
давл.,
гПа
погр.,
м
25 сентября, вс
вс2523:00+14юз816750 0.0 1001815
02:00+14юз714800 0.0 1001685
05:00+13зюз713810 0.0 1001570
08:00+14з612780 0.0 1004471
11:00+16зсз914660 0.0 1007956
14:00+16сз8116139 0.0 1009934
17:00+15сз69620 0.0 1012734
20:00+12зюз22744 0.0 101416
26 сентября, пн
пн2623:00+11зюз4481100 0.0 101672
02:00+11зюз3381100 0.0 101653
05:00+11юз3379100 0.0 101667
08:00+11ююз3475100 0.0 101687
11:00+16ююз5769100 0.0 1015388
14:00+18ю366016 0.0 1013731
17:00+19юз47650 0.0 1012541
20:00+15юз47830 0.0 1013158
27 сентября, вт
вт2723:00+13ююз47950 0.0 1012130
02:00+13юз510905 0.0 1011235
05:00+13зюз468929 0.0 101196
08:00+11зюз45800 0.0 1013103
11:00+14зсз610500 0.0 1014757
14:00+15зсз57430 0.0 1014754
17:00+15з69500 0.0 1014623
20:00+11юз58680 0.0 1016170
28 сентября, ср
ср2823:00+9юз58710 0.0 1016146
02:00+10юз58760 0.0 1015134
05:00+10ююз57790 0.0 1013119
08:00+11ююз59800 0.0 1012172
11:00+18юз612600 0.0 1010368
14:00+20юз814520 0.0 1008489
17:00+19юз916540 0.0 1007455
20:00+17юз716561 0.0 1007377
29 сентября, чт
чт2923:00+17юз6135971 0.0 1006331
02:00+15юз811825 0.0 1006307
05:00+13зюз34931 0.0 100748
08:00+13ссз229227 0.0 101024
11:00+12св5589100 0.1 1013493
14:00+12всв228075 0.1 1014477
17:00+12вюв328114 0.1 1014395
20:00+10юв4588100 0.0 1015231